Flag for Germany Weather past 2 weeks in Pfaffenhofen an der Ilm, Bavaria, Germany

Now
66 °F

Scattered clouds.


Feels Like: 66 °F
Forecast: 62 / 86 °F
Wind: 3 mph from East

Location: Ingolstadt Airport

Current Time: Jul 2, 2015 at 7:24:37 AM

Latest Report: Jul 2, 2015 at 6:20 AM


Visibility: N/A

Pressure: 30.18 "Hg

Humidity: 83%

Dew point: 61 °F

Location of Pfaffenhofen an der IlmLocation

Historic Weather in Pfaffenhofen an der Ilm — Graph

°F

Pfaffenhofen an der Ilm temperature yesterday

Maximum temperature yesterday: 86 °F (at 4:00 PM)
Minimum temperature yesterday: 61 °F (at 4:20 AM)
Average temperature yesterday: 75 °F

Past Weeks' High & Low Weather Summary

 TemperatureHumidityPressure
High86 °F (Jul 1, 4:00 PM)100% (Jun 18, 8:20 PM)30.24 "Hg (Jun 18, 8:20 PM)
Low45 °F (Jun 25, 4:20 AM)35% (Jul 1, 5:20 PM)29.74 "Hg (Jun 23, 12:20 AM)
Average61 °F73%30.10 "Hg
* Reported Jun 17 6:20 AM — Jul 2 6:20 AM, Pfaffenhofen an der Ilm, Weather by CustomWeather, © 2015

Note: Actual official high and low records may vary slightly from our data, if they occured in-between our weather recording intervals... More about our weather records

Advertising

Pfaffenhofen an der Ilm weather history for previous 24 hours

 ConditionsComfort  
Time TempWeatherWind HumidityBarometerVisibility
6:20 AM
Thu, Jul 2
66 °FScattered clouds.3 mph83%30.18 "HgN/A
5:20 AM63 °FPassing clouds.3 mph94%30.18 "HgN/A
4:20 AM64 °FMild.5 mph88%30.18 "Hg0 mi
3:20 AM64 °FMild.2 mph88%30.18 "Hg2 mi
2:20 AM64 °FMild.1 mph88%30.18 "Hg3 mi
1:20 AM66 °FMild.3 mph83%30.15 "Hg3 mi
12:20 AM68 °FMild.2 mph78%30.15 "Hg3 mi
11:20 PM
Wed, Jul 1
72 °FMild.6 mph73%30.15 "Hg3 mi
10:20 PM73 °FMild.1 mph65%30.15 "Hg3 mi
9:20 PM79 °FWarm.3 mph51%30.12 "Hg4 mi
8:20 PM82 °FWarm.5 mph42%30.12 "HgN/A
7:20 PM84 °FPleasantly warm.6 mph40%30.12 "HgN/A
6:20 PM86 °FPleasantly warm.7 mph38%30.12 "HgN/A
5:20 PM86 °FPassing clouds.7 mph35%30.12 "HgN/A
4:20 PM86 °FPassing clouds.5 mph38%30.12 "HgN/A
4:00 PM86 °FPassing clouds.7 mph38%30.12 "HgN/A
3:20 PM84 °FPassing clouds.7 mph37%30.12 "HgN/A
2:20 PM84 °FPassing clouds.7 mph40%30.12 "HgN/A
1:20 PM82 °FPassing clouds.6 mph42%30.15 "HgN/A
12:20 PM82 °FPassing clouds.7 mph45%30.15 "HgN/A
11:20 AM79 °FPassing clouds.6 mph51%30.15 "HgN/A
10:20 AM77 °FWarm.6 mph57%30.15 "HgN/A
9:20 AM73 °FMild.5 mph65%30.15 "HgN/A
8:20 AM70 °FMild.3 mph69%30.15 "HgN/A
7:20 AM64 °FMild.5 mph78%30.15 "HgN/A
Weather by CustomWeather, © 2015

See weather overviewHow to use our weather pages